Tracking 18945 objects as of 19-Jan-2018
HD Live streaming from Space Station
objects crossing your sky now

METEOR 3-3

Track METEOR 3-3 now!
10-day predictions
METEOR 3-3 is classified as:


NORAD ID: 20305
Int'l Code: 1989-086A
Perigee: 1,245.1 km
Apogee: 1,257.3 km
Inclination: 82.5 °
Period: 110.4 minutes
Semi major axis: 7622 km
RCS: 6.8663 m2 (large)
Launch date: October 24, 1989
Source: Commonwealth of Independent States (former USSR) (CIS)
Launch site: PLESETSK MISSILE AND SPACE COMPLEX (PKMTR)
aabbcc
Your satellite tracking list
Your tracking list is empty




NASA's NSSDC Master Catalog

Two Line Element Set (TLE):
1 20305U 89086A   18018.57706438 -.00000558 +00000-0 -17745-2 0  9995
2 20305 082.5498 071.6062 0007989 111.6298 041.7205 13.04622752346083
Source of the keplerian elements: AFSPC